Newark, OH

8:21 AM EDT on September 25, 2016 (GMT -0400)
Newark Heath

Weather History for KVTA - April, 2014

Change the Weather History Date:

Monday, April 14, 2014

  Actual Average Record
Temperature  
Mean Temperature 61 °F -  
Max Temperature 72 °F 64 °F 83 °F (1941)
Min Temperature 50 °F 40 °F 18 °F (1950)
Degree Days  
Heating Degree Days 4    
Growing Degree Days 11 (Base 50)    
Moisture  
Dew Point 53 °F    
Average Humidity 74    
Maximum Humidity 90    
Minimum Humidity 43    
Precipitation  
Precipitation 0.32 in - - ()
Sea Level Pressure  
Sea Level Pressure 29.69 in    
Wind  
Wind Speed 11 mph (SW)    
Max Wind Speed 21 mph    
Max Gust Speed 34 mph    
Visibility 9 miles    
Events Rain    
Averages and records for this station are not official NWS values.
T = Trace of Precipitation, MM = Missing Value Source: NWS Daily Summary

Daily Weather History Graph

Daily Weather History Graph

Search for Another Location

Airport or City:

Trip Planner

Search our weather history database for the weather conditions in past years. The results will help you decide how hot, cold, wet, or windy it might be!

Date:

Astronomy

Apr. 14, 2014 Rise Set
Actual Time 6:53 AM EDT 8:07 PM EDT
Civil Twilight 6:25 AM EDT 8:35 PM EDT
Nautical Twilight 5:52 AM EDT 9:09 PM EDT
Astronomical Twilight 5:17 AM EDT 9:44 PM EDT
Moon 7:45 PM EDT (4/14) 6:24 AM EDT (4/14)
Length of Visible Light 14h 09m
Length of Day
13h 13m
Full, 100% of the Moon is Illuminated
Apr 14
Full
Apr 15
Full
Apr 22
Last Quarter
Apr 29
New
May 6
First Quarter

Hourly Weather History & Observations

Time (EDT) Temp. Dew Point Humidity Pressure Visibility Wind Dir Wind Speed Gust Speed Precip Events Conditions
12:54 AM 57.9 °F 48.9 °F 72% 29.75 in 10.0 mi SW 4.6 mph - N/A   Clear
1:54 AM 66.9 °F 46.9 °F 49% 29.73 in 10.0 mi SSW 8.1 mph - N/A   Clear
2:54 AM 70.0 °F 48.0 °F 46% 29.72 in 10.0 mi SSW 9.2 mph - N/A   Clear
3:54 AM 72.0 °F 48.0 °F 43% 29.70 in 10.0 mi South 12.7 mph 20.7 mph N/A   Clear
4:54 AM 72.0 °F 48.9 °F 44% 29.69 in 10.0 mi South 15.0 mph - N/A   Clear
5:54 AM 72.0 °F 48.9 °F 44% 29.67 in 10.0 mi South 15.0 mph 24.2 mph N/A   Mostly Cloudy
6:54 AM 72.0 °F 48.9 °F 44% 29.66 in 10.0 mi South 11.5 mph 26.5 mph N/A   Partly Cloudy
7:54 AM 70.0 °F 48.9 °F 47% 29.67 in 10.0 mi South 12.7 mph 20.7 mph N/A   Overcast
8:54 AM 70.0 °F 50.0 °F 49% 29.66 in 10.0 mi South 11.5 mph 20.7 mph 0.00 in Rain Light Rain
9:26 AM 63.0 °F 55.9 °F 78% 29.71 in 3.0 mi WSW 17.3 mph 33.4 mph 0.04 in Rain Rain
9:54 AM 63.0 °F 57.0 °F 81% 29.70 in 10.0 mi SW 13.8 mph - 0.05 in Rain Light Rain
10:54 AM 63.0 °F 57.0 °F 81% 29.70 in 10.0 mi SW 8.1 mph 19.6 mph 0.02 in Rain Light Rain
11:54 AM 64.0 °F 55.9 °F 75% 29.71 in 6.0 mi SSW 18.4 mph 27.6 mph 0.04 in Rain Light Rain
12:23 PM 62.1 °F 57.0 °F 84% 29.73 in 2.5 mi SW 18.4 mph 25.3 mph 0.10 in Rain Light Rain
12:30 PM 62.1 °F 57.0 °F 84% 29.73 in 5.0 mi SSW 15.0 mph 27.6 mph 0.11 in Rain Light Rain
12:54 PM 62.1 °F 57.9 °F 86% 29.73 in 3.0 mi SSW 12.7 mph 24.2 mph 0.15 in Rain Rain
1:54 PM 64.0 °F 57.9 °F 80% 29.71 in 10.0 mi SSW 17.3 mph 29.9 mph 0.05 in Rain Light Rain
2:25 PM 64.0 °F 57.0 °F 78% 29.71 in 10.0 mi SSW 16.1 mph 26.5 mph 0.00 in   Overcast
2:49 PM 64.4 °F 55.4 °F 73% 29.71 in 10.0 mi SSW 20.7 mph 34.5 mph 0.00 in   Overcast
2:54 PM 64.0 °F 55.9 °F 75% 29.70 in 10.0 mi SSW 18.4 mph 34.5 mph 0.00 in   Overcast
3:21 PM 64.0 °F 55.9 °F 75% 29.71 in 10.0 mi SW 13.8 mph 27.6 mph N/A   Overcast
3:54 PM 63.0 °F 57.0 °F 81% 29.69 in 10.0 mi SSW 16.1 mph 21.9 mph N/A   Overcast
4:21 PM 64.0 °F 57.0 °F 78% 29.70 in 10.0 mi SSW 13.8 mph 18.4 mph N/A   Overcast
4:54 PM 64.9 °F 57.0 °F 75% 29.68 in 10.0 mi SSW 11.5 mph - 0.00 in   Overcast
5:54 PM 64.9 °F 55.9 °F 73% 29.67 in 10.0 mi SSW 11.5 mph - N/A   Overcast
6:54 PM 62.1 °F 57.0 °F 84% 29.65 in 10.0 mi WSW 4.6 mph - 0.01 in   Overcast
7:54 PM 62.1 °F 57.0 °F 84% 29.65 in 5.0 mi SW 5.8 mph - 0.00 in Rain Light Rain
8:54 PM 61.0 °F 55.9 °F 83% 29.66 in 10.0 mi Variable 3.5 mph - 0.00 in Rain Light Rain
9:54 PM 55.9 °F 53.1 °F 90% 29.67 in 10.0 mi NNW 10.4 mph - 0.00 in   Overcast
10:03 PM 55.0 °F 52.0 °F 89% 29.67 in 10.0 mi NNW 10.4 mph - N/A   Overcast
10:13 PM 55.0 °F 51.1 °F 86% 29.67 in 10.0 mi NNW 9.2 mph - N/A   Overcast
10:36 PM 54.0 °F 50.0 °F 86% 29.68 in 10.0 mi North 4.6 mph - N/A   Overcast
10:46 PM 54.0 °F 48.9 °F 83% 29.68 in 10.0 mi NW 6.9 mph - N/A   Overcast
10:54 PM 53.1 °F 48.9 °F 86% 29.68 in 10.0 mi NNW 10.4 mph - N/A   Overcast
11:03 PM 53.1 °F 48.9 °F 86% 29.67 in 10.0 mi NW 11.5 mph - N/A   Overcast
11:21 PM 51.1 °F 46.0 °F 83% 29.66 in 10.0 mi NW 12.7 mph - N/A   Overcast
11:49 PM 50.0 °F 44.6 °F 82% 29.69 in 10.0 mi NW 10.4 mph - N/A   Overcast
11:54 PM 50.0 °F 45.0 °F 83% 29.69 in 10.0 mi WNW 12.7 mph - N/A   Overcast